Time,TemperatureF,DewpointF,PressureIn,WindDirection,WindDirectionDegrees,WindSpeedMPH,WindSpeedGustMPH,Humidity,HourlyPrecipIn,Conditions,Clouds,dailyrainin,SoftwareType,DateUTC
2013-06-08 00:01:00,51.9,51.0,29.99,North,360,0.0,2.0,97,0.12,,,0.01,Rainwise IP-100,2013-06-08 04:01:00,
2013-06-08 00:02:00,52.2,51.0,29.99,NW,315,1.0,2.0,97,0.12,,,0.01,Rainwise IP-100,2013-06-08 04:02:00,
2013-06-08 00:04:00,52.0,51.0,29.99,NW,315,0.0,2.0,97,0.12,,,0.01,Rainwise IP-100,2013-06-08 04:04:00,
2013-06-08 00:09:00,52.0,51.0,29.99,NNE,22,1.0,2.0,97,0.18,,,0.03,Rainwise IP-100,2013-06-08 04:09:00,
2013-06-08 00:14:00,52.0,51.0,29.99,NW,315,1.0,2.0,97,0.18,,,0.04,Rainwise IP-100,2013-06-08 04:14:00,
2013-06-08 00:18:00,52.0,51.0,29.99,East,90,2.0,2.0,97,0.12,,,0.05,Rainwise IP-100,2013-06-08 04:18:00,
2013-06-08 00:23:00,51.9,51.0,29.99,NW,315,1.0,2.0,97,0.12,,,0.06,Rainwise IP-100,2013-06-08 04:23:00,
2013-06-08 00:28:00,51.9,51.0,29.99,NNW,337,1.0,3.0,97,0.12,,,0.07,Rainwise IP-100,2013-06-08 04:28:00,
2013-06-08 00:33:00,51.9,51.0,29.99,NW,315,1.0,3.0,97,0.06,,,0.08,Rainwise IP-100,2013-06-08 04:33:00,
2013-06-08 00:38:00,51.8,51.0,29.99,North,360,1.0,2.0,97,0.12,,,0.09,Rainwise IP-100,2013-06-08 04:38:00,
2013-06-08 00:44:00,51.8,51.0,29.98,ENE,67,1.0,3.0,97,0.12,,,0.10,Rainwise IP-100,2013-06-08 04:44:00,
2013-06-08 00:49:00,51.7,51.0,29.98,NNW,337,0.0,2.0,97,0.06,,,0.10,Rainwise IP-100,2013-06-08 04:49:00,
2013-06-08 00:54:00,51.7,51.0,29.98,NW,315,2.0,3.0,97,0.06,,,0.11,Rainwise IP-100,2013-06-08 04:54:00,
2013-06-08 00:59:00,51.7,51.0,29.98,East,90,0.0,2.0,97,0.06,,,0.11,Rainwise IP-100,2013-06-08 04:59:00,
2013-06-08 01:04:00,51.7,51.0,29.97,NNW,337,0.0,2.0,97,0.06,,,0.12,Rainwise IP-100,2013-06-08 05:04:00,
2013-06-08 01:09:00,51.7,51.0,29.97,NNW,337,0.0,2.0,97,0.06,,,0.12,Rainwise IP-100,2013-06-08 05:09:00,
2013-06-08 01:14:00,51.7,51.0,29.97,NNW,337,0.0,2.0,97,0.06,,,0.13,Rainwise IP-100,2013-06-08 05:14:00,
2013-06-08 01:19:00,51.7,51.0,29.97,NNW,337,0.0,0.0,97,0.06,,,0.13,Rainwise IP-100,2013-06-08 05:19:00,
2013-06-08 01:24:00,51.7,51.0,29.97,NNW,337,0.0,0.0,97,0.00,,,0.13,Rainwise IP-100,2013-06-08 05:24:00,
2013-06-08 01:29:00,51.7,51.0,29.97,NE,45,0.0,0.0,97,0.00,,,0.13,Rainwise IP-100,2013-06-08 05:29:00,
2013-06-08 01:34:00,51.7,51.0,29.96,NE,45,0.0,0.0,97,0.06,,,0.14,Rainwise IP-100,2013-06-08 05:34:00,
2013-06-08 01:39:00,51.7,51.0,29.96,NE,45,0.0,0.0,97,0.06,,,0.14,Rainwise IP-100,2013-06-08 05:39:00,
2013-06-08 01:45:00,51.7,51.0,29.96,NE,45,0.0,0.0,97,0.00,,,0.14,Rainwise IP-100,2013-06-08 05:45:00,
2013-06-08 01:50:00,51.7,51.0,29.95,NE,45,0.0,0.0,97,0.00,,,0.14,Rainwise IP-100,2013-06-08 05:50:00,
2013-06-08 01:55:00,51.7,51.0,29.95,North,360,1.0,2.0,97,0.00,,,0.14,Rainwise IP-100,2013-06-08 05:55:00,
2013-06-08 02:00:00,51.6,51.0,29.95,North,360,0.0,1.0,97,0.00,,,0.14,Rainwise IP-100,2013-06-08 06:00:00,
2013-06-08 02:05:00,51.6,51.0,29.95,North,360,0.0,0.0,97,0.00,,,0.14,Rainwise IP-100,2013-06-08 06:05:00,
2013-06-08 02:10:00,51.6,51.0,29.95,NW,315,0.0,2.0,97,0.00,,,0.14,Rainwise IP-100,2013-06-08 06:10:00,
2013-06-08 02:15:00,51.6,51.0,29.94,NW,315,1.0,0.0,97,0.00,,,0.14,Rainwise IP-100,2013-06-08 06:15:00,
2013-06-08 02:20:00,51.5,51.0,29.94,NW,315,2.0,2.0,97,0.00,,,0.14,Rainwise IP-100,2013-06-08 06:20:00,
2013-06-08 02:25:00,51.4,50.5,29.94,NW,315,0.0,2.0,97,0.00,,,0.14,Rainwise IP-100,2013-06-08 06:25:00,
2013-06-08 02:30:00,51.4,50.5,29.94,NW,315,0.0,0.0,97,0.00,,,0.14,Rainwise IP-100,2013-06-08 06:30:00,
2013-06-08 02:35:00,51.4,50.5,29.94,NW,315,0.0,0.0,97,0.00,,,0.14,Rainwise IP-100,2013-06-08 06:35:00,
2013-06-08 02:40:00,51.4,50.5,29.94,NW,315,0.0,2.0,97,0.00,,,0.14,Rainwise IP-100,2013-06-08 06:40:00,
2013-06-08 02:46:00,51.4,50.5,29.94,NW,315,1.0,2.0,97,0.00,,,0.14,Rainwise IP-100,2013-06-08 06:46:00,
2013-06-08 02:51:00,51.4,50.5,29.94,NW,315,0.0,1.0,97,0.00,,,0.14,Rainwise IP-100,2013-06-08 06:51:00,
2013-06-08 02:56:00,51.4,50.5,29.94,NW,315,0.0,0.0,97,0.00,,,0.14,Rainwise IP-100,2013-06-08 06:56:00,
2013-06-08 03:01:00,51.4,50.5,29.94,NW,315,0.0,0.0,97,0.00,,,0.14,Rainwise IP-100,2013-06-08 07:01:00,
2013-06-08 03:06:00,51.4,50.5,29.94,NW,315,0.0,0.0,97,0.00,,,0.14,Rainwise IP-100,2013-06-08 07:06:00,
2013-06-08 03:11:00,51.3,50.5,29.94,NW,315,2.0,2.0,97,0.00,,,0.14,Rainwise IP-100,2013-06-08 07:11:00,
2013-06-08 03:16:00,51.3,50.5,29.94,NW,315,2.0,2.0,97,0.00,,,0.14,Rainwise IP-100,2013-06-08 07:16:00,
2013-06-08 03:21:00,51.3,50.5,29.94,NW,315,1.0,2.0,97,0.00,,,0.14,Rainwise IP-100,2013-06-08 07:21:00,
2013-06-08 03:26:00,51.2,50.5,29.94,NW,315,2.0,2.0,97,0.00,,,0.14,Rainwise IP-100,2013-06-08 07:26:00,
2013-06-08 03:31:00,51.2,50.5,29.94,NW,315,1.0,2.0,97,0.00,,,0.14,Rainwise IP-100,2013-06-08 07:31:00,
2013-06-08 03:36:00,51.2,50.5,29.93,NW,315,1.0,2.0,97,0.00,,,0.14,Rainwise IP-100,2013-06-08 07:36:00,
2013-06-08 03:41:00,51.2,50.5,29.93,NW,315,1.0,2.0,97,0.00,,,0.14,Rainwise IP-100,2013-06-08 07:41:00,
2013-06-08 03:47:00,51.2,50.5,29.93,NW,315,1.0,2.0,97,0.00,,,0.14,Rainwise IP-100,2013-06-08 07:47:00,
2013-06-08 03:53:00,51.3,50.5,29.93,NW,315,1.0,2.0,97,0.00,,,0.14,Rainwise IP-100,2013-06-08 07:53:00,
2013-06-08 03:58:00,51.3,50.5,29.93,North,360,1.0,2.0,97,0.00,,,0.14,Rainwise IP-100,2013-06-08 07:58:00,
2013-06-08 04:03:00,51.3,50.5,29.93,North,360,0.0,2.0,97,0.00,,,0.14,Rainwise IP-100,2013-06-08 08:03:00,
2013-06-08 04:08:00,51.1,50.5,29.93,North,360,0.0,0.0,97,0.00,,,0.14,Rainwise IP-100,2013-06-08 08:08:00,
2013-06-08 04:13:00,51.1,50.5,29.93,North,360,0.0,1.0,97,0.00,,,0.14,Rainwise IP-100,2013-06-08 08:13:00,
2013-06-08 04:18:00,51.1,50.5,29.93,NNW,337,2.0,2.0,97,0.00,,,0.14,Rainwise IP-100,2013-06-08 08:18:00,
2013-06-08 04:23:00,51.0,50.5,29.93,NNW,337,1.0,2.0,97,0.00,,,0.14,Rainwise IP-100,2013-06-08 08:23:00,
2013-06-08 04:28:00,50.9,50.5,29.93,NE,45,1.0,2.0,97,0.00,,,0.14,Rainwise IP-100,2013-06-08 08:28:00,
2013-06-08 04:33:00,50.9,50.5,29.93,North,360,1.0,2.0,97,0.00,,,0.14,Rainwise IP-100,2013-06-08 08:33:00,
2013-06-08 04:38:00,50.9,50.5,29.93,North,360,0.0,2.0,97,0.00,,,0.14,Rainwise IP-100,2013-06-08 08:38:00,
2013-06-08 04:44:00,50.9,50.5,29.93,NE,45,1.0,2.0,97,0.00,,,0.14,Rainwise IP-100,2013-06-08 08:44:00,
2013-06-08 04:49:00,50.8,50.5,29.93,NNE,22,1.0,2.0,97,0.00,,,0.14,Rainwise IP-100,2013-06-08 08:49:00,
2013-06-08 04:54:00,50.8,50.5,29.93,North,360,2.0,5.0,97,0.00,,,0.14,Rainwise IP-100,2013-06-08 08:54:00,
2013-06-08 04:59:00,50.7,50.0,29.93,NW,315,3.0,3.0,97,0.00,,,0.14,Rainwise IP-100,2013-06-08 08:59:00,
2013-06-08 05:04:00,50.6,50.0,29.93,North,360,2.0,3.0,97,0.00,,,0.14,Rainwise IP-100,2013-06-08 09:04:00,
2013-06-08 05:09:00,50.6,50.0,29.92,NNW,337,1.0,2.0,97,0.00,,,0.14,Rainwise IP-100,2013-06-08 09:09:00,
2013-06-08 05:14:00,50.6,50.0,29.93,NNE,22,0.0,2.0,97,0.00,,,0.14,Rainwise IP-100,2013-06-08 09:14:00,
2013-06-08 05:19:00,50.6,50.0,29.93,NNE,22,0.0,1.0,97,0.00,,,0.14,Rainwise IP-100,2013-06-08 09:19:00,
2013-06-08 05:24:00,50.6,50.0,29.93,North,360,2.0,2.0,97,0.00,,,0.14,Rainwise IP-100,2013-06-08 09:24:00,
2013-06-08 05:29:00,50.5,50.0,29.93,North,360,0.0,2.0,97,0.00,,,0.14,Rainwise IP-100,2013-06-08 09:29:00,
2013-06-08 05:34:00,50.5,50.0,29.93,NW,315,0.0,2.0,97,0.00,,,0.14,Rainwise IP-100,2013-06-08 09:34:00,
2013-06-08 05:39:00,50.5,50.0,29.93,NW,315,0.0,0.0,97,0.00,,,0.14,Rainwise IP-100,2013-06-08 09:39:00,
2013-06-08 05:45:00,50.5,50.0,29.93,NW,315,0.0,0.0,97,0.00,,,0.14,Rainwise IP-100,2013-06-08 09:45:00,
2013-06-08 05:50:00,50.6,50.0,29.93,NW,315,0.0,2.0,97,0.00,,,0.14,Rainwise IP-100,2013-06-08 09:50:00,
2013-06-08 05:55:00,50.6,50.0,29.93,NW,315,0.0,0.0,97,0.00,,,0.14,Rainwise IP-100,2013-06-08 09:55:00,
2013-06-08 06:00:00,50.6,50.0,29.93,NE,45,2.0,2.0,97,0.00,,,0.14,Rainwise IP-100,2013-06-08 10:00:00,
2013-06-08 06:05:00,50.6,50.0,29.93,NNE,22,1.0,2.0,97,0.00,,,0.14,Rainwise IP-100,2013-06-08 10:05:00,
2013-06-08 06:10:00,50.6,50.0,29.93,NE,45,1.0,2.0,97,0.00,,,0.14,Rainwise IP-100,2013-06-08 10:10:00,
2013-06-08 06:15:00,50.6,50.0,29.93,NE,45,0.0,2.0,97,0.00,,,0.14,Rainwise IP-100,2013-06-08 10:15:00,
2013-06-08 06:20:00,50.6,50.0,29.93,NE,45,0.0,2.0,97,0.00,,,0.14,Rainwise IP-100,2013-06-08 10:20:00,
2013-06-08 06:25:00,50.7,50.0,29.93,North,360,2.0,2.0,97,0.00,,,0.14,Rainwise IP-100,2013-06-08 10:25:00,
2013-06-08 06:30:00,50.7,50.0,29.93,North,360,1.0,2.0,97,0.00,,,0.14,Rainwise IP-100,2013-06-08 10:30:00,
2013-06-08 06:35:00,50.8,50.5,29.93,North,360,0.0,2.0,97,0.00,,,0.14,Rainwise IP-100,2013-06-08 10:35:00,
2013-06-08 06:40:00,50.8,50.5,29.93,North,360,2.0,2.0,97,0.00,,,0.14,Rainwise IP-100,2013-06-08 10:40:00,
2013-06-08 06:46:00,50.8,50.5,29.94,NW,315,0.0,2.0,97,0.00,,,0.14,Rainwise IP-100,2013-06-08 10:46:00,
2013-06-08 06:51:00,50.8,50.5,29.94,North,360,2.0,2.0,97,0.00,,,0.14,Rainwise IP-100,2013-06-08 10:51:00,
2013-06-08 06:56:00,50.8,50.5,29.94,North,360,1.0,2.0,97,0.00,,,0.14,Rainwise IP-100,2013-06-08 10:56:00,
2013-06-08 07:01:00,50.8,50.5,29.94,North,360,1.0,2.0,97,0.00,,,0.14,Rainwise IP-100,2013-06-08 11:01:00,
2013-06-08 07:07:00,51.1,50.5,29.94,North,360,0.0,2.0,97,0.00,,,0.14,Rainwise IP-100,2013-06-08 11:07:00,
2013-06-08 07:12:00,51.2,50.5,29.94,North,360,1.0,2.0,97,0.06,,,0.15,Rainwise IP-100,2013-06-08 11:12:00,
2013-06-08 07:17:00,51.6,51.0,29.94,North,360,0.0,2.0,97,0.06,,,0.15,Rainwise IP-100,2013-06-08 11:17:00,
2013-06-08 07:22:00,51.6,51.0,29.94,North,360,2.0,2.0,97,0.00,,,0.15,Rainwise IP-100,2013-06-08 11:22:00,
2013-06-08 07:27:00,51.8,51.0,29.95,North,360,0.0,2.0,97,0.00,,,0.15,Rainwise IP-100,2013-06-08 11:27:00,
2013-06-08 07:32:00,51.9,51.0,29.95,North,360,0.0,0.0,97,0.00,,,0.15,Rainwise IP-100,2013-06-08 11:32:00,
2013-06-08 07:37:00,51.9,51.0,29.95,NE,45,2.0,0.0,97,0.00,,,0.15,Rainwise IP-100,2013-06-08 11:37:00,
2013-06-08 07:42:00,52.1,51.0,29.95,NE,45,0.0,2.0,97,0.00,,,0.15,Rainwise IP-100,2013-06-08 11:42:00,
2013-06-08 07:48:00,52.1,51.0,29.95,NE,45,0.0,0.0,97,0.00,,,0.15,Rainwise IP-100,2013-06-08 11:48:00,
2013-06-08 07:53:00,52.3,51.0,29.95,NE,45,0.0,0.0,97,0.00,,,0.15,Rainwise IP-100,2013-06-08 11:53:00,
2013-06-08 07:58:00,52.4,51.0,29.95,NE,45,0.0,0.0,97,0.00,,,0.15,Rainwise IP-100,2013-06-08 11:58:00,
2013-06-08 08:03:00,52.5,52.0,29.95,East,90,0.0,0.0,97,0.00,,,0.15,Rainwise IP-100,2013-06-08 12:03:00,
2013-06-08 08:08:00,52.7,52.0,29.95,SE,135,1.0,2.0,97,0.00,,,0.15,Rainwise IP-100,2013-06-08 12:08:00,
2013-06-08 08:13:00,52.8,52.0,29.95,SE,135,1.0,2.0,97,0.00,,,0.15,Rainwise IP-100,2013-06-08 12:13:00,
2013-06-08 08:18:00,53.2,52.0,29.95,East,90,1.0,2.0,97,0.00,,,0.15,Rainwise IP-100,2013-06-08 12:18:00,
2013-06-08 08:23:00,53.2,52.0,29.95,WNW,292,0.0,2.0,97,0.00,,,0.15,Rainwise IP-100,2013-06-08 12:23:00,
2013-06-08 08:28:00,53.4,53.0,29.96,SW,225,2.0,4.0,97,0.00,,,0.15,Rainwise IP-100,2013-06-08 12:28:00,
2013-06-08 08:33:00,53.5,53.0,29.96,South,180,1.0,3.0,97,0.00,,,0.15,Rainwise IP-100,2013-06-08 12:33:00,
2013-06-08 08:38:00,53.7,53.0,29.96,WSW,247,0.0,2.0,97,0.00,,,0.15,Rainwise IP-100,2013-06-08 12:38:00,
2013-06-08 08:43:00,53.9,53.5,29.96,SW,225,4.0,4.0,97,0.00,,,0.15,Rainwise IP-100,2013-06-08 12:43:00,
2013-06-08 08:49:00,53.8,53.5,29.97,SSW,202,1.0,5.0,97,0.00,,,0.15,Rainwise IP-100,2013-06-08 12:49:00,
2013-06-08 08:54:00,53.7,53.0,29.97,WSW,247,4.0,5.0,97,0.00,,,0.15,Rainwise IP-100,2013-06-08 12:54:00,
2013-06-08 08:59:00,53.6,53.0,29.97,SSW,202,1.0,6.0,97,0.00,,,0.15,Rainwise IP-100,2013-06-08 12:59:00,
2013-06-08 09:04:00,53.5,53.0,29.97,South,180,3.0,6.0,97,0.00,,,0.15,Rainwise IP-100,2013-06-08 13:04:00,
2013-06-08 09:09:00,53.6,53.0,29.97,West,270,1.0,6.0,97,0.00,,,0.15,Rainwise IP-100,2013-06-08 13:09:00,
2013-06-08 09:14:00,53.7,53.0,29.97,WSW,247,1.0,4.0,97,0.00,,,0.15,Rainwise IP-100,2013-06-08 13:14:00,
2013-06-08 09:19:00,53.9,53.5,29.97,SE,135,2.0,3.0,97,0.00,,,0.15,Rainwise IP-100,2013-06-08 13:19:00,
2013-06-08 09:24:00,54.1,53.5,29.98,ESE,112,2.0,2.0,97,0.00,,,0.15,Rainwise IP-100,2013-06-08 13:24:00,
2013-06-08 09:29:00,54.4,54.0,29.98,South,180,2.0,4.0,97,0.00,,,0.15,Rainwise IP-100,2013-06-08 13:29:00,
2013-06-08 09:34:00,54.6,54.0,29.98,SSE,157,2.0,4.0,97,0.00,,,0.15,Rainwise IP-100,2013-06-08 13:34:00,
2013-06-08 09:39:00,54.7,54.0,29.98,East,90,0.0,4.0,97,0.00,,,0.15,Rainwise IP-100,2013-06-08 13:39:00,
2013-06-08 09:44:00,54.9,54.5,29.98,WSW,247,2.0,5.0,97,0.00,,,0.15,Rainwise IP-100,2013-06-08 13:44:00,
2013-06-08 09:50:00,54.9,54.5,29.98,SW,225,1.0,6.0,97,0.00,,,0.15,Rainwise IP-100,2013-06-08 13:50:00,
2013-06-08 09:55:00,55.1,54.5,29.98,SW,225,1.0,4.0,97,0.00,,,0.15,Rainwise IP-100,2013-06-08 13:55:00,
2013-06-08 10:00:00,55.3,54.5,29.98,South,180,1.0,4.0,97,0.00,,,0.15,Rainwise IP-100,2013-06-08 14:00:00,
2013-06-08 10:05:00,55.4,54.5,29.98,West,270,2.0,4.0,97,0.00,,,0.15,Rainwise IP-100,2013-06-08 14:05:00,
2013-06-08 10:10:00,55.6,55.0,29.99,South,180,2.0,4.0,97,0.00,,,0.15,Rainwise IP-100,2013-06-08 14:10:00,
2013-06-08 10:15:00,55.8,55.0,29.99,SW,225,1.0,4.0,97,0.00,,,0.15,Rainwise IP-100,2013-06-08 14:15:00,
2013-06-08 10:20:00,56.1,55.0,29.99,East,90,2.0,2.0,97,0.00,,,0.15,Rainwise IP-100,2013-06-08 14:20:00,
2013-06-08 10:25:00,56.3,56.0,29.99,NE,45,1.0,6.0,97,0.00,,,0.15,Rainwise IP-100,2013-06-08 14:25:00,
2013-06-08 10:30:00,56.4,56.0,29.99,West,270,4.0,5.0,97,0.00,,,0.15,Rainwise IP-100,2013-06-08 14:30:00,
2013-06-08 10:35:00,56.5,56.0,29.99,North,360,1.0,7.0,97,0.00,,,0.15,Rainwise IP-100,2013-06-08 14:35:00,
2013-06-08 10:40:00,56.7,56.0,29.99,South,180,2.0,3.0,97,0.00,,,0.15,Rainwise IP-100,2013-06-08 14:40:00,
2013-06-08 10:45:00,56.6,56.0,30.00,West,270,2.0,4.0,97,0.00,,,0.15,Rainwise IP-100,2013-06-08 14:45:00,
2013-06-08 10:51:00,56.6,56.0,30.00,South,180,2.0,6.0,97,0.00,,,0.15,Rainwise IP-100,2013-06-08 14:51:00,
2013-06-08 10:56:00,56.7,56.0,30.01,SW,225,2.0,4.0,97,0.00,,,0.15,Rainwise IP-100,2013-06-08 14:56:00,
2013-06-08 11:01:00,56.8,56.5,30.01,West,270,0.0,7.0,97,0.00,,,0.15,Rainwise IP-100,2013-06-08 15:01:00,
2013-06-08 11:06:00,56.8,56.5,30.01,SW,225,2.0,4.0,97,0.00,,,0.15,Rainwise IP-100,2013-06-08 15:06:00,
2013-06-08 11:11:00,56.8,56.5,30.01,SSE,157,0.0,7.0,97,0.00,,,0.15,Rainwise IP-100,2013-06-08 15:11:00,
2013-06-08 11:16:00,56.9,56.5,30.01,West,270,0.0,2.0,97,0.00,,,0.15,Rainwise IP-100,2013-06-08 15:16:00,
2013-06-08 11:21:00,57.1,56.5,30.02,West,270,2.0,6.0,97,0.00,,,0.15,Rainwise IP-100,2013-06-08 15:21:00,
2013-06-08 11:26:00,56.8,56.5,30.02,SSW,202,1.0,6.0,97,0.00,,,0.15,Rainwise IP-100,2013-06-08 15:26:00,
2013-06-08 11:31:00,56.9,56.5,30.02,NW,315,1.0,2.0,97,0.00,,,0.15,Rainwise IP-100,2013-06-08 15:31:00,
2013-06-08 11:36:00,56.9,56.5,30.03,South,180,2.0,3.0,97,0.00,,,0.15,Rainwise IP-100,2013-06-08 15:36:00,
2013-06-08 11:41:00,57.2,56.5,30.03,SE,135,2.0,6.0,97,0.00,,,0.15,Rainwise IP-100,2013-06-08 15:41:00,
2013-06-08 11:46:00,57.2,56.5,30.03,SW,225,0.0,5.0,97,0.00,,,0.15,Rainwise IP-100,2013-06-08 15:46:00,
2013-06-08 11:52:00,57.4,57.0,30.03,SW,225,2.0,5.0,97,0.00,,,0.15,Rainwise IP-100,2013-06-08 15:52:00,
2013-06-08 11:57:00,57.3,57.0,30.03,North,360,1.0,4.0,97,0.00,,,0.15,Rainwise IP-100,2013-06-08 15:57:00,
2013-06-08 12:03:00,57.4,57.0,30.03,East,90,0.0,4.0,97,0.00,,,0.15,Rainwise IP-100,2013-06-08 16:03:00,
2013-06-08 12:08:00,57.3,57.0,30.03,North,360,2.0,6.0,97,0.00,,,0.15,Rainwise IP-100,2013-06-08 16:08:00,
2013-06-08 12:13:00,57.1,56.5,30.03,WSW,247,1.0,5.0,97,0.00,,,0.15,Rainwise IP-100,2013-06-08 16:13:00,
2013-06-08 12:18:00,56.9,56.5,30.03,WNW,292,2.0,5.0,97,0.00,,,0.15,Rainwise IP-100,2013-06-08 16:18:00,
2013-06-08 12:23:00,56.8,56.5,30.03,WSW,247,2.0,6.0,97,0.00,,,0.15,Rainwise IP-100,2013-06-08 16:23:00,
2013-06-08 12:28:00,56.6,56.0,30.03,NE,45,1.0,7.0,97,0.00,,,0.15,Rainwise IP-100,2013-06-08 16:28:00,
2013-06-08 12:33:00,56.7,56.0,30.03,South,180,2.0,3.0,97,0.00,,,0.15,Rainwise IP-100,2013-06-08 16:33:00,
2013-06-08 12:38:00,56.6,56.0,30.03,SW,225,1.0,7.0,97,0.00,,,0.15,Rainwise IP-100,2013-06-08 16:38:00,
2013-06-08 12:43:00,56.7,56.0,30.03,SW,225,3.0,6.0,97,0.00,,,0.15,Rainwise IP-100,2013-06-08 16:43:00,
2013-06-08 12:48:00,56.8,56.5,30.04,NNW,337,1.0,6.0,97,0.00,,,0.15,Rainwise IP-100,2013-06-08 16:48:00,
2013-06-08 12:54:00,56.9,56.5,30.04,NNW,337,2.0,7.0,97,0.00,,,0.15,Rainwise IP-100,2013-06-08 16:54:00,
2013-06-08 12:59:00,57.3,57.0,30.04,West,270,2.0,6.0,97,0.00,,,0.15,Rainwise IP-100,2013-06-08 16:59:00,
2013-06-08 13:04:00,57.3,56.5,30.04,SW,225,1.0,5.0,96,0.00,,,0.15,Rainwise IP-100,2013-06-08 17:04:00,
2013-06-08 13:09:00,57.3,56.0,30.04,SSW,202,4.0,7.0,93,0.00,,,0.15,Rainwise IP-100,2013-06-08 17:09:00,
2013-06-08 13:14:00,57.5,56.5,30.04,WNW,292,0.0,6.0,96,0.00,,,0.15,Rainwise IP-100,2013-06-08 17:14:00,
2013-06-08 13:19:00,57.6,56.5,30.04,West,270,2.0,4.0,95,0.00,,,0.15,Rainwise IP-100,2013-06-08 17:19:00,
2013-06-08 13:24:00,57.5,56.5,30.04,South,180,1.0,6.0,95,0.00,,,0.15,Rainwise IP-100,2013-06-08 17:24:00,
2013-06-08 13:29:00,57.2,56.5,30.05,NW,315,1.0,7.0,97,0.00,,,0.15,Rainwise IP-100,2013-06-08 17:29:00,
2013-06-08 13:34:00,56.9,56.5,30.05,West,270,2.0,6.0,97,0.00,,,0.15,Rainwise IP-100,2013-06-08 17:34:00,
2013-06-08 13:39:00,56.9,56.5,30.05,West,270,0.0,4.0,97,0.00,,,0.15,Rainwise IP-100,2013-06-08 17:39:00,
2013-06-08 13:44:00,57.1,56.5,30.05,South,180,0.0,2.0,97,0.00,,,0.15,Rainwise IP-100,2013-06-08 17:44:00,
2013-06-08 13:49:00,57.3,56.5,30.05,WSW,247,3.0,6.0,96,0.00,,,0.15,Rainwise IP-100,2013-06-08 17:49:00,
2013-06-08 13:55:00,57.3,56.0,30.05,SSE,157,1.0,7.0,94,0.00,,,0.15,Rainwise IP-100,2013-06-08 17:55:00,
2013-06-08 14:00:00,57.3,56.5,30.05,North,360,3.0,4.0,96,0.00,,,0.15,Rainwise IP-100,2013-06-08 18:00:00,
2013-06-08 14:05:00,57.3,56.5,30.05,West,270,3.0,6.0,96,0.00,,,0.15,Rainwise IP-100,2013-06-08 18:05:00,
2013-06-08 14:10:00,57.2,56.0,30.05,NW,315,1.0,5.0,95,0.00,,,0.15,Rainwise IP-100,2013-06-08 18:10:00,
2013-06-08 14:15:00,57.7,56.5,30.05,North,360,1.0,6.0,95,0.00,,,0.15,Rainwise IP-100,2013-06-08 18:15:00,
2013-06-08 14:20:00,57.7,56.0,30.05,SSW,202,2.0,6.0,94,0.00,,,0.15,Rainwise IP-100,2013-06-08 18:20:00,
2013-06-08 14:25:00,57.7,56.0,30.05,NE,45,1.0,5.0,94,0.00,,,0.15,Rainwise IP-100,2013-06-08 18:25:00,
2013-06-08 14:30:00,57.8,56.0,30.05,SW,225,0.0,4.0,92,0.00,,,0.15,Rainwise IP-100,2013-06-08 18:30:00,
2013-06-08 14:35:00,57.9,56.0,30.06,WSW,247,1.0,4.0,92,0.00,,,0.15,Rainwise IP-100,2013-06-08 18:35:00,
2013-06-08 14:40:00,57.9,56.0,30.06,South,180,2.0,5.0,92,0.00,,,0.15,Rainwise IP-100,2013-06-08 18:40:00,
2013-06-08 14:45:00,57.6,56.0,30.06,SW,225,0.0,7.0,93,0.00,,,0.15,Rainwise IP-100,2013-06-08 18:45:00,
2013-06-08 14:50:00,57.4,56.0,30.07,South,180,2.0,6.0,94,0.00,,,0.15,Rainwise IP-100,2013-06-08 18:50:00,
2013-06-08 14:56:00,57.2,55.0,30.07,South,180,2.0,7.0,94,0.00,,,0.15,Rainwise IP-100,2013-06-08 18:56:00,
2013-06-08 15:01:00,57.0,56.0,30.07,WSW,247,2.0,4.0,95,0.00,,,0.15,Rainwise IP-100,2013-06-08 19:01:00,
2013-06-08 15:06:00,56.9,56.0,30.07,South,180,2.0,6.0,96,0.00,,,0.15,Rainwise IP-100,2013-06-08 19:06:00,
2013-06-08 15:12:00,56.6,56.0,30.07,SW,225,2.0,6.0,97,0.00,,,0.15,Rainwise IP-100,2013-06-08 19:12:00,
2013-06-08 15:17:00,56.6,56.0,30.08,SW,225,0.0,3.0,97,0.00,,,0.15,Rainwise IP-100,2013-06-08 19:17:00,
2013-06-08 15:22:00,56.9,56.5,30.08,SW,225,1.0,3.0,97,0.00,,,0.15,Rainwise IP-100,2013-06-08 19:22:00,
2013-06-08 15:27:00,57.3,56.5,30.08,North,360,1.0,6.0,95,0.00,,,0.15,Rainwise IP-100,2013-06-08 19:27:00,
2013-06-08 15:32:00,57.4,56.5,30.08,SE,135,1.0,5.0,95,0.00,,,0.15,Rainwise IP-100,2013-06-08 19:32:00,
2013-06-08 15:37:00,57.3,56.5,30.08,West,270,2.0,5.0,95,0.00,,,0.15,Rainwise IP-100,2013-06-08 19:37:00,
2013-06-08 15:43:00,57.5,56.5,30.09,WSW,247,2.0,2.0,96,0.00,,,0.15,Rainwise IP-100,2013-06-08 19:43:00,
2013-06-08 15:48:00,57.2,56.0,30.09,SE,135,0.0,4.0,95,0.00,,,0.15,Rainwise IP-100,2013-06-08 19:48:00,
2013-06-08 15:54:00,56.9,56.0,30.09,West,270,2.0,7.0,96,0.00,,,0.15,Rainwise IP-100,2013-06-08 19:54:00,
2013-06-08 15:59:00,56.8,56.0,30.09,West,270,0.0,5.0,96,0.00,,,0.15,Rainwise IP-100,2013-06-08 19:59:00,
2013-06-08 16:04:00,56.7,55.0,30.08,SW,225,2.0,4.0,96,0.00,,,0.15,Rainwise IP-100,2013-06-08 20:04:00,
2013-06-08 16:09:00,56.6,55.0,30.09,SW,225,2.0,4.0,96,0.00,,,0.15,Rainwise IP-100,2013-06-08 20:09:00,
2013-06-08 16:14:00,56.6,56.0,30.09,North,360,1.0,6.0,97,0.00,,,0.15,Rainwise IP-100,2013-06-08 20:14:00,
2013-06-08 16:19:00,56.5,56.0,30.09,SW,225,1.0,5.0,97,0.00,,,0.15,Rainwise IP-100,2013-06-08 20:19:00,
2013-06-08 16:24:00,56.3,56.0,30.10,SW,225,2.0,4.0,97,0.00,,,0.15,Rainwise IP-100,2013-06-08 20:24:00,
2013-06-08 16:29:00,56.2,55.0,30.10,NNW,337,1.0,4.0,97,0.00,,,0.15,Rainwise IP-100,2013-06-08 20:29:00,
2013-06-08 16:34:00,56.0,55.0,30.10,West,270,2.0,5.0,97,0.00,,,0.15,Rainwise IP-100,2013-06-08 20:34:00,
2013-06-08 16:39:00,55.9,55.0,30.10,NW,315,2.0,3.0,97,0.00,,,0.15,Rainwise IP-100,2013-06-08 20:39:00,
2013-06-08 16:44:00,55.8,55.0,30.11,NW,315,1.0,3.0,97,0.00,,,0.15,Rainwise IP-100,2013-06-08 20:44:00,
2013-06-08 16:49:00,55.8,55.0,30.11,NW,315,4.0,4.0,97,0.00,,,0.15,Rainwise IP-100,2013-06-08 20:49:00,
2013-06-08 16:55:00,55.8,55.0,30.11,SE,135,0.0,4.0,97,0.00,,,0.15,Rainwise IP-100,2013-06-08 20:55:00,
2013-06-08 17:00:00,55.9,55.0,30.11,West,270,0.0,5.0,97,0.00,,,0.15,Rainwise IP-100,2013-06-08 21:00:00,
2013-06-08 17:05:00,55.9,55.0,30.11,WNW,292,2.0,2.0,97,0.00,,,0.15,Rainwise IP-100,2013-06-08 21:05:00,
2013-06-08 17:10:00,55.9,55.0,30.11,WSW,247,0.0,2.0,97,0.00,,,0.15,Rainwise IP-100,2013-06-08 21:10:00,
2013-06-08 17:15:00,55.9,55.0,30.11,NW,315,1.0,2.0,97,0.00,,,0.15,Rainwise IP-100,2013-06-08 21:15:00,
2013-06-08 17:20:00,55.9,55.0,30.11,NW,315,3.0,6.0,97,0.00,,,0.15,Rainwise IP-100,2013-06-08 21:20:00,
2013-06-08 17:25:00,55.9,55.0,30.11,SSW,202,3.0,3.0,97,0.00,,,0.15,Rainwise IP-100,2013-06-08 21:25:00,
2013-06-08 17:30:00,55.8,55.0,30.11,NNW,337,1.0,3.0,97,0.00,,,0.15,Rainwise IP-100,2013-06-08 21:30:00,
2013-06-08 17:35:00,55.8,55.0,30.11,North,360,2.0,5.0,97,0.00,,,0.15,Rainwise IP-100,2013-06-08 21:35:00,
2013-06-08 17:40:00,55.8,55.0,30.11,NW,315,2.0,4.0,97,0.00,,,0.15,Rainwise IP-100,2013-06-08 21:40:00,
2013-06-08 17:45:00,55.8,55.0,30.11,SW,225,1.0,3.0,97,0.00,,,0.15,Rainwise IP-100,2013-06-08 21:45:00,
2013-06-08 17:50:00,55.8,55.0,30.11,SE,135,1.0,4.0,97,0.00,,,0.15,Rainwise IP-100,2013-06-08 21:50:00,
2013-06-08 17:56:00,55.7,55.0,30.12,WSW,247,1.0,5.0,97,0.00,,,0.15,Rainwise IP-100,2013-06-08 21:56:00,
2013-06-08 18:01:00,55.8,55.0,30.11,NW,315,0.0,6.0,97,0.00,,,0.15,Rainwise IP-100,2013-06-08 22:01:00,
2013-06-08 18:06:00,55.9,55.0,30.12,North,360,0.0,2.0,97,0.00,,,0.15,Rainwise IP-100,2013-06-08 22:06:00,
2013-06-08 18:11:00,56.1,55.0,30.12,SE,135,2.0,2.0,97,0.00,,,0.15,Rainwise IP-100,2013-06-08 22:11:00,
2013-06-08 18:17:00,56.1,55.0,30.12,SSW,202,1.0,2.0,97,0.00,,,0.15,Rainwise IP-100,2013-06-08 22:17:00,
2013-06-08 18:23:00,56.1,55.0,30.13,NE,45,1.0,2.0,97,0.00,,,0.15,Rainwise IP-100,2013-06-08 22:23:00,
2013-06-08 18:28:00,56.1,55.0,30.13,NNW,337,2.0,3.0,97,0.00,,,0.15,Rainwise IP-100,2013-06-08 22:28:00,
2013-06-08 18:33:00,56.1,55.0,30.13,SW,225,2.0,4.0,97,0.00,,,0.15,Rainwise IP-100,2013-06-08 22:33:00,
2013-06-08 18:38:00,56.1,55.0,30.13,West,270,0.0,4.0,97,0.00,,,0.15,Rainwise IP-100,2013-06-08 22:38:00,
2013-06-08 18:43:00,56.0,55.0,30.13,SW,225,2.0,3.0,97,0.00,,,0.15,Rainwise IP-100,2013-06-08 22:43:00,
2013-06-08 18:48:00,55.9,55.0,30.13,East,90,2.0,7.0,97,0.00,,,0.15,Rainwise IP-100,2013-06-08 22:48:00,
2013-06-08 18:53:00,55.8,55.0,30.13,SW,225,1.0,7.0,97,0.00,,,0.15,Rainwise IP-100,2013-06-08 22:53:00,
2013-06-08 18:59:00,55.6,55.0,30.14,SE,135,0.0,5.0,97,0.00,,,0.15,Rainwise IP-100,2013-06-08 22:59:00,
2013-06-08 19:04:00,55.4,54.5,30.14,South,180,1.0,2.0,97,0.00,,,0.15,Rainwise IP-100,2013-06-08 23:04:00,
2013-06-08 19:09:00,55.4,54.5,30.14,West,270,0.0,3.0,97,0.00,,,0.15,Rainwise IP-100,2013-06-08 23:09:00,
2013-06-08 19:14:00,55.3,54.5,30.14,West,270,0.0,2.0,97,0.00,,,0.15,Rainwise IP-100,2013-06-08 23:14:00,
2013-06-08 19:19:00,55.3,54.5,30.14,SSE,157,1.0,2.0,97,0.00,,,0.15,Rainwise IP-100,2013-06-08 23:19:00,
2013-06-08 19:24:00,55.2,54.5,30.14,SE,135,2.0,2.0,97,0.00,,,0.15,Rainwise IP-100,2013-06-08 23:24:00,
2013-06-08 19:29:00,55.1,54.5,30.14,SE,135,0.0,2.0,97,0.00,,,0.15,Rainwise IP-100,2013-06-08 23:29:00,
2013-06-08 19:34:00,55.2,54.5,30.14,South,180,0.0,2.0,97,0.00,,,0.15,Rainwise IP-100,2013-06-08 23:34:00,
2013-06-08 19:39:00,55.1,54.5,30.14,NW,315,1.0,2.0,97,0.00,,,0.15,Rainwise IP-100,2013-06-08 23:39:00,
2013-06-08 19:44:00,55.1,54.5,30.14,SSE,157,0.0,3.0,97,0.00,,,0.15,Rainwise IP-100,2013-06-08 23:44:00,
2013-06-08 19:49:00,55.1,54.5,30.14,SW,225,0.0,2.0,97,0.00,,,0.15,Rainwise IP-100,2013-06-08 23:49:00,
2013-06-08 19:54:00,55.1,54.5,30.14,SSE,157,2.0,2.0,97,0.00,,,0.15,Rainwise IP-100,2013-06-08 23:54:00,
2013-06-08 20:00:00,55.1,54.5,30.14,SSW,202,2.0,3.0,97,0.00,,,0.15,Rainwise IP-100,2013-06-09 00:00:00,
2013-06-08 20:05:00,55.1,54.5,30.13,SSW,202,1.0,2.0,97,0.00,,,0.15,Rainwise IP-100,2013-06-09 00:05:00,
2013-06-08 20:10:00,55.1,54.5,30.13,SE,135,2.0,2.0,97,0.00,,,0.15,Rainwise IP-100,2013-06-09 00:10:00,
2013-06-08 20:15:00,55.1,54.5,30.13,SE,135,0.0,2.0,97,0.00,,,0.15,Rainwise IP-100,2013-06-09 00:15:00,
2013-06-08 20:20:00,55.0,54.5,30.13,SE,135,0.0,0.0,97,0.00,,,0.15,Rainwise IP-100,2013-06-09 00:20:00,
2013-06-08 20:25:00,55.0,54.5,30.13,SE,135,0.0,0.0,97,0.00,,,0.15,Rainwise IP-100,2013-06-09 00:25:00,
2013-06-08 20:30:00,54.9,54.5,30.13,SE,135,0.0,0.0,97,0.00,,,0.15,Rainwise IP-100,2013-06-09 00:30:00,
2013-06-08 20:35:00,54.9,54.5,30.14,SE,135,0.0,0.0,97,0.06,,,0.16,Rainwise IP-100,2013-06-09 00:35:00,
2013-06-08 20:40:00,54.9,54.5,30.13,SE,135,0.0,0.0,97,0.06,,,0.16,Rainwise IP-100,2013-06-09 00:40:00,
2013-06-08 20:45:00,54.9,54.5,30.14,SE,135,0.0,0.0,97,0.00,,,0.16,Rainwise IP-100,2013-06-09 00:45:00,
2013-06-08 20:50:00,54.9,54.5,30.14,SE,135,0.0,0.0,97,0.00,,,0.16,Rainwise IP-100,2013-06-09 00:50:00,
2013-06-08 20:55:00,54.9,54.5,30.14,SE,135,0.0,0.0,97,0.00,,,0.16,Rainwise IP-100,2013-06-09 00:55:00,
2013-06-08 21:01:00,54.8,54.5,30.14,SE,135,0.0,0.0,97,0.00,,,0.16,Rainwise IP-100,2013-06-09 01:01:00,
2013-06-08 21:06:00,54.8,54.5,30.15,SE,135,0.0,0.0,97,0.00,,,0.16,Rainwise IP-100,2013-06-09 01:06:00,
2013-06-08 21:11:00,54.8,54.5,30.15,SE,135,0.0,2.0,97,0.00,,,0.16,Rainwise IP-100,2013-06-09 01:11:00,
2013-06-08 21:16:00,54.8,54.5,30.15,SE,135,0.0,1.0,97,0.00,,,0.16,Rainwise IP-100,2013-06-09 01:16:00,
2013-06-08 21:21:00,54.7,54.0,30.15,SE,135,0.0,0.0,97,0.00,,,0.16,Rainwise IP-100,2013-06-09 01:21:00,
2013-06-08 21:27:00,54.7,54.0,30.15,SE,135,0.0,0.0,97,0.00,,,0.16,Rainwise IP-100,2013-06-09 01:27:00,
2013-06-08 21:32:00,54.7,54.0,30.15,SE,135,0.0,0.0,97,0.00,,,0.16,Rainwise IP-100,2013-06-09 01:32:00,
2013-06-08 21:37:00,54.7,54.0,30.15,SE,135,0.0,0.0,97,0.00,,,0.16,Rainwise IP-100,2013-06-09 01:37:00,
2013-06-08 21:42:00,54.7,54.0,30.15,SE,135,0.0,0.0,97,0.00,,,0.16,Rainwise IP-100,2013-06-09 01:42:00,
2013-06-08 21:48:00,54.8,54.5,30.16,SE,135,0.0,0.0,97,0.00,,,0.16,Rainwise IP-100,2013-06-09 01:48:00,
2013-06-08 21:53:00,54.8,54.5,30.16,SE,135,0.0,0.0,97,0.00,,,0.16,Rainwise IP-100,2013-06-09 01:53:00,
2013-06-08 21:59:00,54.8,54.5,30.17,SE,135,0.0,0.0,97,0.00,,,0.16,Rainwise IP-100,2013-06-09 01:59:00,
2013-06-08 22:04:00,54.8,54.5,30.17,SE,135,0.0,0.0,97,0.00,,,0.16,Rainwise IP-100,2013-06-09 02:04:00,
2013-06-08 22:09:00,54.8,54.5,30.17,SE,135,0.0,0.0,97,0.00,,,0.16,Rainwise IP-100,2013-06-09 02:09:00,
2013-06-08 22:14:00,54.7,54.0,30.17,SE,135,0.0,0.0,97,0.00,,,0.16,Rainwise IP-100,2013-06-09 02:14:00,
2013-06-08 22:19:00,54.7,54.0,30.17,SE,135,0.0,0.0,97,0.00,,,0.16,Rainwise IP-100,2013-06-09 02:19:00,
2013-06-08 22:24:00,54.7,54.0,30.17,SE,135,0.0,0.0,97,0.00,,,0.16,Rainwise IP-100,2013-06-09 02:24:00,
2013-06-08 22:29:00,54.7,54.0,30.17,SE,135,0.0,0.0,97,0.00,,,0.16,Rainwise IP-100,2013-06-09 02:29:00,
2013-06-08 22:34:00,54.7,54.0,30.17,SE,135,0.0,0.0,97,0.00,,,0.16,Rainwise IP-100,2013-06-09 02:34:00,
2013-06-08 22:39:00,54.7,54.0,30.17,SE,135,0.0,0.0,97,0.06,,,0.17,Rainwise IP-100,2013-06-09 02:39:00,
2013-06-08 22:44:00,54.7,54.0,30.17,SE,135,0.0,0.0,97,0.06,,,0.17,Rainwise IP-100,2013-06-09 02:44:00,
2013-06-08 22:49:00,54.6,54.0,30.18,SE,135,0.0,0.0,97,0.00,,,0.17,Rainwise IP-100,2013-06-09 02:49:00,
2013-06-08 22:54:00,54.7,54.0,30.18,SE,135,0.0,0.0,97,0.00,,,0.17,Rainwise IP-100,2013-06-09 02:54:00,
2013-06-08 23:00:00,54.6,54.0,30.18,SE,135,0.0,0.0,97,0.00,,,0.17,Rainwise IP-100,2013-06-09 03:00:00,
2013-06-08 23:05:00,54.6,54.0,30.18,SE,135,0.0,0.0,97,0.00,,,0.17,Rainwise IP-100,2013-06-09 03:05:00,
2013-06-08 23:10:00,54.6,54.0,30.18,SE,135,0.0,0.0,97,0.00,,,0.17,Rainwise IP-100,2013-06-09 03:10:00,
2013-06-08 23:15:00,54.6,54.0,30.18,SE,135,0.0,0.0,97,0.06,,,0.18,Rainwise IP-100,2013-06-09 03:15:00,
2013-06-08 23:20:00,54.6,54.0,30.18,SE,135,0.0,0.0,97,0.06,,,0.18,Rainwise IP-100,2013-06-09 03:20:00,
2013-06-08 23:25:00,54.6,54.0,30.18,SE,135,0.0,0.0,97,0.00,,,0.18,Rainwise IP-100,2013-06-09 03:25:00,
2013-06-08 23:30:00,54.6,54.0,30.18,SE,135,0.0,0.0,97,0.06,,,0.19,Rainwise IP-100,2013-06-09 03:30:00,
2013-06-08 23:35:00,54.6,54.0,30.18,SE,135,0.0,0.0,97,0.18,,,0.21,Rainwise IP-100,2013-06-09 03:35:00,
2013-06-08 23:40:00,54.6,54.0,30.18,SE,135,0.0,0.0,97,0.18,,,0.23,Rainwise IP-100,2013-06-09 03:40:00,
2013-06-08 23:45:00,54.7,54.0,30.18,SE,135,0.0,0.0,97,0.18,,,0.24,Rainwise IP-100,2013-06-09 03:45:00,
2013-06-08 23:50:00,54.7,54.0,30.18,SE,135,2.0,2.0,97,0.18,,,0.25,Rainwise IP-100,2013-06-09 03:50:00,
2013-06-08 23:55:00,54.7,54.0,30.18,NE,45,0.0,2.0,97,0.06,,,0.25,Rainwise IP-100,2013-06-09 03:55:00,